| time (UTC) | temp F | wind direction | speed knots | gust knots | rain 1hr in | rain 24hr in | rain mn in | humidity % | barometer mb |
| 20260507141436 | 73 | 92 | 1.7 | 1.7 | 0.00 | 0.00 | 0.00 | 19 | 1014.1 |
| 20260507140435 | 72 | 104 | 0.0 | 0.9 | 0.00 | 0.00 | 0.00 | 21 | 1013.9 |
| 20260507135435 | 70 | 103 | 0.9 | 0.9 | 0.00 | 0.00 | 0.00 | 24 | 1014.0 |
| 20260507134436 | 69 | 132 | 1.7 | 1.7 | 0.00 | 0.00 | 0.00 | 25 | 1013.9 |
| 20260507133531 | 68 | 98 | 0.0 | 0.9 | 0.00 | 0.00 | 0.00 | 26 | 1013.8 |
| 20260507133435 | 68 | 98 | 0.0 | 0.9 | 0.00 | 0.00 | 0.00 | 26 | 1013.8 |
| 20260507132435 | 68 | 95 | 0.0 | 0.0 | 0.00 | 0.00 | 0.00 | 26 | 1013.8 |
| 20260507131436 | 68 | 78 | 0.0 | 0.0 | 0.00 | 0.00 | 0.00 | 25 | 1013.8 |
| 20260507130435 | 67 | 56 | 0.9 | 0.9 | 0.00 | 0.00 | 0.00 | 25 | 1013.8 |
| 20260507125435 | 67 | 29 | 2.6 | 2.6 | 0.00 | 0.00 | 0.00 | 26 | 1013.7 |
| 20260507124436 | 67 | 49 | 2.6 | 3.5 | 0.00 | 0.00 | 0.00 | 26 | 1013.7 |
| 20260507123435 | 66 | 33 | 3.5 | 3.5 | 0.00 | 0.00 | 0.00 | 27 | 1013.6 |
| 20260507122435 | 64 | 23 | 3.5 | 4.3 | 0.00 | 0.00 | 0.00 | 29 | 1013.6 |
| 20260507121436 | 66 | 33 | 2.6 | 3.5 | 0.00 | 0.00 | 0.00 | 28 | 1013.6 |
| 20260507120435 | 66 | 15 | 3.5 | 5.2 | 0.00 | 0.00 | 0.00 | 28 | 1013.3 |
| 20260507115436 | 62 | 42 | 1.7 | 1.7 | 0.00 | 0.00 | 0.00 | 31 | 1013.5 |
| 20260507114438 | 62 | 59 | 0.0 | 0.9 | 0.00 | 0.00 | 0.00 | 32 | 1013.6 |
| 20260507113449 | 63 | 31 | 0.9 | 1.7 | 0.00 | 0.00 | 0.00 | 31 | 1013.7 |
| 20260507111540 | 62 | 34 | 1.7 | 2.6 | 0.00 | 0.00 | 0.00 | 31 | 1013.7 |
| 20260507111436 | 62 | 34 | 1.7 | 2.6 | 0.00 | 0.00 | 0.00 | 31 | 1013.7 |
| 20260507105435 | 64 | 31 | 1.7 | 1.7 | 0.00 | 0.00 | 0.00 | 30 | 1013.7 |
| 20260507104436 | 63 | 6 | 1.7 | 2.6 | 0.00 | 0.00 | 0.00 | 30 | 1013.8 |
| 20260507103435 | 63 | 60 | 0.9 | 1.7 | 0.00 | 0.00 | 0.00 | 30 | 1013.8 |
| 20260507102435 | 63 | 61 | 0.0 | 0.9 | 0.00 | 0.00 | 0.00 | 30 | 1014.0 |
| 20260507101436 | 63 | 26 | 0.9 | 1.7 | 0.00 | 0.00 | 0.00 | 30 | 1013.9 |
| 20260507100435 | 64 | 51 | 0.9 | 1.7 | 0.00 | 0.00 | 0.00 | 29 | 1014.1 |
| 20260507095438 | 64 | 2 | 3.5 | 4.3 | 0.00 | 0.00 | 0.00 | 28 | 1014.0 |
| 20260507094436 | 64 | 24 | 2.6 | 3.5 | 0.00 | 0.00 | 0.00 | 28 | 1013.9 |
| 20260507091435 | 63 | 37 | 0.9 | 0.9 | 0.00 | 0.00 | 0.00 | 30 | 1014.1 |
| 20260507090438 | 63 | 40 | 1.7 | 1.7 | 0.00 | 0.00 | 0.00 | 30 | 1014.4 |
| 20260507085438 | 63 | 46 | 1.7 | 2.6 | 0.00 | 0.00 | 0.00 | 30 | 1014.2 |
| 20260507084437 | 63 | 3 | 0.9 | 1.7 | 0.00 | 0.00 | 0.00 | 30 | 1014.4 |
| 20260507083436 | 62 | 58 | 0.9 | 1.7 | 0.00 | 0.00 | 0.00 | 30 | 1014.6 |
| 20260507082437 | 61 | 45 | 0.9 | 0.9 | 0.00 | 0.00 | 0.00 | 32 | 1014.5 |
| 20260507081508 | 60 | 37 | 0.9 | 1.7 | 0.00 | 0.00 | 0.00 | 32 | 1014.3 |
| 20260507081436 | 60 | 37 | 0.9 | 1.7 | 0.00 | 0.00 | 0.00 | 32 | 1014.3 |
| 20260507080435 | 60 | 54 | 0.9 | 0.9 | 0.00 | 0.00 | 0.00 | 33 | 1014.4 |
| 20260507075435 | 61 | 41 | 0.9 | 0.9 | 0.00 | 0.00 | 0.00 | 31 | 1014.6 |
| 20260507074436 | 61 | 55 | 0.0 | 0.9 | 0.00 | 0.00 | 0.00 | 31 | 1014.5 |
| 20260507073438 | 61 | 42 | 0.9 | 0.9 | 0.00 | 0.00 | 0.00 | 32 | 1014.5 |
| 20260507072435 | 61 | 55 | 0.0 | 0.9 | 0.00 | 0.00 | 0.00 | 32 | 1014.6 |
| 20260507071436 | 61 | 53 | 0.0 | 0.9 | 0.00 | 0.00 | 0.00 | 32 | 1014.7 |
| 20260507065435 | 61 | 29 | 0.9 | 0.9 | 0.00 | 0.00 | 0.00 | 32 | 1014.9 |
| 20260507064436 | 62 | 282 | 0.9 | 1.7 | 0.00 | 0.00 | 0.00 | 31 | 1014.7 |
| 20260507063435 | 62 | 39 | 0.0 | 0.9 | 0.00 | 0.00 | 0.00 | 31 | 1014.6 |
| 20260507062506 | 62 | 38 | 0.9 | 1.7 | 0.00 | 0.00 | 0.00 | 31 | 1014.4 |
| 20260507062435 | 62 | 38 | 0.9 | 1.7 | 0.00 | 0.00 | 0.00 | 31 | 1014.4 |
| 20260507061435 | 62 | 285 | 0.9 | 1.7 | 0.00 | 0.00 | 0.00 | 31 | 1014.5 |
| 20260507060435 | 62 | 36 | 0.9 | 0.9 | 0.00 | 0.00 | 0.00 | 31 | 1014.5 |
| 20260507054620 | 64 | 119 | 0.0 | 0.9 | 0.00 | 0.00 | 0.00 | 29 | 1014.3 |
| 20260507054436 | 64 | 119 | 0.0 | 0.9 | 0.00 | 0.00 | 0.00 | 29 | 1014.3 |
| 20260507052509 | 66 | 19 | 0.9 | 0.9 | 0.00 | 0.00 | 0.00 | 29 | 1014.4 |
| 20260507052435 | 66 | 19 | 0.9 | 0.9 | 0.00 | 0.00 | 0.00 | 29 | 1014.4 |
| 20260507051436 | 67 | 349 | 0.0 | 0.9 | 0.00 | 0.00 | 0.00 | 28 | 1014.6 |
| 20260507050436 | 66 | 297 | 0.9 | 1.7 | 0.00 | 0.00 | 0.00 | 28 | 1014.5 |
| 20260507045437 | 66 | 14 | 0.9 | 1.7 | 0.00 | 0.00 | 0.00 | 28 | 1014.4 |
| 20260507044438 | 67 | 20 | 0.9 | 1.7 | 0.00 | 0.00 | 0.00 | 28 | 1014.2 |
| 20260507042436 | 67 | 47 | 0.9 | 0.9 | 0.00 | 0.00 | 0.00 | 28 | 1014.1 |
| 20260507041436 | 67 | 0 | 1.7 | 1.7 | 0.00 | 0.00 | 0.00 | 28 | 1013.9 |
| 20260507040436 | 67 | 59 | 0.0 | 0.9 | 0.00 | 0.00 | 0.00 | 28 | 1013.8 |
| 20260507035600 | 68 | 276 | 0.9 | 1.7 | 0.00 | 0.00 | 0.00 | 28 | 1013.7 |
| 20260507035436 | 68 | 276 | 0.9 | 1.7 | 0.00 | 0.00 | 0.00 | 28 | 1013.7 |
| 20260507034437 | 68 | 16 | 0.9 | 1.7 | 0.00 | 0.00 | 0.00 | 27 | 1013.8 |
| 20260507033436 | 70 | 59 | 0.0 | 0.9 | 0.00 | 0.00 | 0.00 | 26 | 1013.8 |
| 20260507032436 | 71 | 270 | 0.9 | 0.9 | 0.00 | 0.00 | 0.00 | 25 | 1013.3 |
| 20260507031436 | 71 | 187 | 0.9 | 1.7 | 0.00 | 0.00 | 0.00 | 25 | 1013.6 |
| 20260507030435 | 71 | 190 | 0.0 | 0.9 | 0.00 | 0.00 | 0.00 | 25 | 1013.3 |
| 20260507024435 | 72 | 137 | 0.0 | 0.9 | 0.00 | 0.00 | 0.00 | 24 | 1013.1 |
| 20260507022436 | 74 | 168 | 1.7 | 1.7 | 0.00 | 0.00 | 0.00 | 23 | 1012.8 |
| 20260507020434 | 75 | 227 | 2.6 | 3.5 | 0.00 | 0.00 | 0.00 | 22 | 1012.8 |
| 20260507015435 | 76 | 79 | 0.9 | 0.9 | 0.00 | 0.00 | 0.00 | 21 | 1012.8 |
| 20260507014439 | 77 | 60 | 1.7 | 1.7 | 0.00 | 0.00 | 0.00 | 21 | 1012.6 |
| 20260507012438 | 78 | 214 | 5.2 | 5.2 | 0.00 | 0.00 | 0.00 | 20 | 1012.5 |
| 20260507011436 | 78 | 196 | 3.5 | 3.5 | 0.00 | 0.00 | 0.00 | 20 | 1012.4 |
| 20260507010434 | 78 | 81 | 2.6 | 3.5 | 0.00 | 0.00 | 0.00 | 20 | 1012.3 |
| 20260507004437 | 78 | 206 | 3.5 | 3.5 | 0.00 | 0.00 | 0.00 | 20 | 1012.4 |
| 20260507003434 | 79 | 230 | 5.2 | 7.0 | 0.00 | 0.00 | 0.00 | 19 | 1012.2 |
| 20260507002434 | 78 | 181 | 7.0 | 7.8 | 0.00 | 0.00 | 0.00 | 20 | 1012.3 |
| 20260507001436 | 78 | 126 | 1.7 | 2.6 | 0.00 | 0.00 | 0.00 | 20 | 1012.4 |
| 20260507000435 | 79 | 220 | 5.2 | 7.8 | 0.00 | 0.00 | 0.00 | 19 | 1012.2 |
| 20260506234438 | 79 | 225 | 8.7 | 8.7 | 0.00 | 0.00 | 0.00 | 19 | 1012.3 |
| 20260506233436 | 80 | 212 | 6.1 | 7.8 | 0.00 | 0.00 | 0.00 | 19 | 1012.6 |
| 20260506232442 | 79 | 232 | 1.7 | 2.6 | 0.00 | 0.00 | 0.00 | 20 | 1012.5 |
| 20260506230435 | 79 | 34 | 1.7 | 2.6 | 0.00 | 0.00 | 0.00 | 19 | 1012.6 |
| 20260506225434 | 79 | 159 | 3.5 | 5.2 | 0.00 | 0.00 | 0.00 | 19 | 1012.6 |
| 20260506224435 | 79 | 144 | 3.5 | 3.5 | 0.00 | 0.00 | 0.00 | 20 | 1012.6 |
| 20260506223434 | 79 | 84 | 0.0 | 0.9 | 0.00 | 0.00 | 0.00 | 19 | 1012.8 |
| 20260506222437 | 79 | 154 | 3.5 | 5.2 | 0.00 | 0.00 | 0.00 | 20 | 1013.1 |
| 20260506221436 | 78 | 237 | 7.8 | 9.6 | 0.00 | 0.00 | 0.00 | 20 | 1013.0 |
| 20260506220434 | 79 | 231 | 3.5 | 5.2 | 0.00 | 0.00 | 0.00 | 19 | 1013.2 |
| 20260506215434 | 80 | 330 | 5.2 | 7.0 | 0.00 | 0.00 | 0.00 | 19 | 1013.2 |
| 20260506214515 | 80 | 192 | 1.7 | 2.6 | 0.00 | 0.00 | 0.00 | 19 | 1013.4 |
| 20260506214435 | 80 | 192 | 1.7 | 2.6 | 0.00 | 0.00 | 0.00 | 19 | 1013.4 |
| 20260506213434 | 79 | 254 | 2.6 | 4.3 | 0.00 | 0.00 | 0.00 | 20 | 1013.7 |
| 20260506212435 | 79 | 249 | 3.5 | 4.3 | 0.00 | 0.00 | 0.00 | 20 | 1013.7 |
| 20260506211436 | 81 | 320 | 7.0 | 9.6 | 0.00 | 0.00 | 0.00 | 19 | 1013.8 |
| 20260506210706 | 79 | 96 | 0.0 | 0.9 | 0.00 | 0.00 | 0.00 | 20 | 1014.1 |
| 20260506210436 | 79 | 96 | 0.0 | 0.9 | 0.00 | 0.00 | 0.00 | 20 | 1014.1 |
| 20260506205435 | 79 | 177 | 2.6 | 3.5 | 0.00 | 0.00 | 0.00 | 20 | 1014.0 |
| 20260506204435 | 77 | 123 | 0.9 | 1.7 | 0.00 | 0.00 | 0.00 | 22 | 1014.1 |
| 20260506203434 | 78 | 280 | 1.7 | 2.6 | 0.00 | 0.00 | 0.00 | 22 | 1014.2 |
| 20260506202434 | 79 | 235 | 4.3 | 7.0 | 0.00 | 0.00 | 0.00 | 21 | 1014.3 |
| 20260506201435 | 79 | 283 | 6.1 | 7.0 | 0.00 | 0.00 | 0.00 | 21 | 1014.5 |
| 20260506200654 | 76 | 165 | 1.7 | 1.7 | 0.00 | 0.00 | 0.00 | 22 | 1014.6 |
| 20260506200434 | 76 | 165 | 1.7 | 1.7 | 0.00 | 0.00 | 0.00 | 22 | 1014.6 |
| 20260506195435 | 77 | 28 | 2.6 | 3.5 | 0.00 | 0.00 | 0.00 | 22 | 1014.6 |
| 20260506194705 | 76 | 246 | 3.5 | 3.5 | 0.00 | 0.00 | 0.00 | 23 | 1014.9 |
| 20260506194435 | 76 | 246 | 3.5 | 3.5 | 0.00 | 0.00 | 0.00 | 23 | 1014.9 |
| 20260506193434 | 76 | 235 | 1.7 | 2.6 | 0.00 | 0.00 | 0.00 | 23 | 1014.9 |
| 20260506192434 | 76 | 276 | 5.2 | 7.0 | 0.00 | 0.00 | 0.00 | 23 | 1014.9 |
| 20260506191439 | 75 | 46 | 1.7 | 2.6 | 0.00 | 0.00 | 0.00 | 23 | 1014.7 |
| 20260506190434 | 75 | 200 | 2.6 | 3.5 | 0.00 | 0.00 | 0.00 | 23 | 1015.0 |
| 20260506185434 | 74 | 108 | 3.5 | 4.3 | 0.00 | 0.00 | 0.00 | 24 | 1015.1 |
| 20260506184435 | 76 | 182 | 5.2 | 7.0 | 0.00 | 0.00 | 0.00 | 23 | 1015.2 |
| 20260506182434 | 74 | 198 | 2.6 | 3.5 | 0.00 | 0.00 | 0.00 | 24 | 1015.3 |
| 20260506181435 | 73 | 147 | 0.9 | 0.9 | 0.00 | 0.00 | 0.00 | 25 | 1015.5 |
| 20260506180434 | 74 | 203 | 1.7 | 2.6 | 0.00 | 0.00 | 0.00 | 24 | 1015.6 |
| 20260506175436 | 74 | 155 | 3.5 | 3.5 | 0.00 | 0.00 | 0.00 | 24 | 1015.6 |
| 20260506174436 | 73 | 274 | 3.5 | 3.5 | 0.00 | 0.00 | 0.00 | 25 | 1015.4 |
| 20260506173435 | 74 | 26 | 3.5 | 4.3 | 0.00 | 0.00 | 0.00 | 24 | 1015.5 |
| 20260506172734 | 75 | 273 | 0.9 | 2.6 | 0.00 | 0.00 | 0.00 | 24 | 1015.5 |
| 20260506172435 | 75 | 273 | 0.9 | 2.6 | 0.00 | 0.00 | 0.00 | 24 | 1015.5 |
| 20260506171436 | 75 | 62 | 0.0 | 0.9 | 0.00 | 0.00 | 0.00 | 24 | 1015.4 |
| 20260506170435 | 73 | 60 | 1.7 | 1.7 | 0.00 | 0.00 | 0.00 | 26 | 1015.6 |
| 20260506165716 | 73 | 88 | 0.0 | 0.9 | 0.00 | 0.00 | 0.00 | 26 | 1015.4 |
| 20260506165435 | 73 | 88 | 0.0 | 0.9 | 0.00 | 0.00 | 0.00 | 26 | 1015.4 |
| 20260506164436 | 73 | 98 | 0.0 | 0.9 | 0.00 | 0.00 | 0.00 | 26 | 1015.4 |
| 20260506163435 | 72 | 92 | 0.0 | 0.9 | 0.00 | 0.00 | 0.00 | 26 | 1015.4 |
| 20260506162435 | 69 | 90 | 0.0 | 0.0 | 0.00 | 0.00 | 0.00 | 29 | 1015.3 |
| 20260506161436 | 68 | 86 | 0.0 | 0.9 | 0.00 | 0.00 | 0.00 | 30 | 1015.3 |
| 20260506160435 | 68 | 116 | 0.9 | 0.9 | 0.00 | 0.00 | 0.00 | 30 | 1015.3 |
| 20260506155435 | 68 | 71 | 0.0 | 0.9 | 0.00 | 0.00 | 0.00 | 30 | 1015.4 |
| 20260506154436 | 68 | 84 | 0.9 | 0.9 | 0.00 | 0.00 | 0.00 | 30 | 1015.4 |
| 20260506153435 | 67 | 146 | 1.7 | 2.6 | 0.00 | 0.00 | 0.00 | 31 | 1015.4 |
| 20260506152435 | 67 | 53 | 1.7 | 1.7 | 0.00 | 0.00 | 0.00 | 32 | 1015.5 |
| 20260506151436 | 67 | 97 | 0.9 | 1.7 | 0.00 | 0.00 | 0.00 | 32 | 1015.3 |
| 20260506150435 | 66 | 112 | 2.6 | 3.5 | 0.00 | 0.00 | 0.00 | 32 | 1015.4 |
| 20260506145435 | 65 | 61 | 0.9 | 1.7 | 0.00 | 0.00 | 0.00 | 33 | 1015.4 |
| 20260506144437 | 64 | 49 | 0.9 | 0.9 | 0.00 | 0.00 | 0.00 | 34 | 1015.3 |